COSMOS 1275 DEB

Satellite information

Favourite Embed

Satellite Type and Status

DEBRISIN ORBIT

Key statistics

Satellite COSMOS 1275 DEB at a glance.

Uptime

16263

Days in orbit

Revolutions

≈ 14.2

Per day

Orbit

LEO

Low Earth Orbit

Inclination

82.7

Latest

Satellite identification and parameters

Extended collection of information and parameters for COSMOS 1275 DEB.

Object identification

Identified? True

Debris? True

Object name: COSMOS 1275 DEB

International designator: 1981-053UW

Object number (NORAD): 42230

Object ID (CCSDS): 42230

Country: COMMONWEALTH OF INDEPENDENT STATES (CIS)

Current information (Y/N): Y

RCS size: SMALL

Orbital parameters

Period: 101.724 minutes

Inclination: 82.7488 deg

SMA: 7218.415 km

Apoapsis: 870.181 km

Periapsis: 810.379 km

RAAN: 117.4539 deg

Eccentricy: 0.00414227

Argument of periapsis: 146.389 deg

Mean anomaly: 213.9929 deg

Mean motion: 14.15598136 rev/day

Mean motion (dot): 0.00003975 rev/day2

B* drag term: 0.002006524 1/REarth

Two-line elements (TLE)

Creation date: Dec. 9, 2025, 1:02 p.m.

Reference frame: TEME

Reference center: EARTH

Epoch: Dec. 9, 2025, 2:50 a.m. UTC

TLE line 0: 0 COSMOS 1275 DEB

TLE line 1: 1 42230U 81053UW 25343.11852363 .00003975 00000-0 20065-2 0 9993

TLE line 2: 2 42230 82.7488 117.4539 0041423 146.3890 213.9929 14.15598136600100

Live tracking on map

Real-time ground track for satellite COSMOS 1275 DEB.

In-orbit conjunctions

A list of the most updated potential collisions computed for object COSMOS 1275 DEB.

Target Orbit TCA Probability of collision Miss distance Type
DELTA 1 R/B SSO 2025-09-25 00:23:00 0.000296556 116.0 (m) ROCKET BODY
CZ-6A DEB SSO 2025-04-23 05:46:33 0.0001910195 80.0 (m) DEBRIS
METEOR 2-7 DEB LEO 2025-04-01 15:23:12 0.0001168235 81.0 (m) DEBRIS
DMSP 5D-2 F13 DEB SSO 2024-11-13 03:42:47 0.0001121409 198.0 (m) DEBRIS
FENGYUN 1C DEB SSO 2024-11-12 11:33:56 0.000111915 365.0 (m) DEBRIS

Associated space launch

Navigation satellite providing location information for the Tsiklon-B navigation system

COSMOS 1275 DEB was lifted into orbit during the mission ‘Kosmos-3M | Parus 27’, on board a Kosmos-3M space rocket.

The launch took place on June 4, 1981, 3:41 p.m. from 132/2.

For more information about the launch, click the button.

Launch to space Kosmos-3M | Parus 27
Kosmos-3M | Parus 27

Agency: N/A

Status: Launch Successful

Launch date: June 4, 1981, 3:41 p.m. UTC

Rocket: Kosmos-3M

Launch pad: 132/2

Location: Plesetsk Cosmodrome, Russian Federation

...

Latest news about this satellite

There are no fresh news available about this satellite. Check back as we update our databases every day.


Newsletter sign-up

Weekly statistics, charts and insights to help you stay on top of the space industry.